Rockport, TX

5:25 PM CST on November 21, 2019 (GMT -0600)
Aransas County

Weather History for KRKP - October, 2019

Change the Weather History Date:

Monday, October 14, 2019

  Actual Average Record
Temperature  
Mean Temperature 83 °F -  
Max Temperature 91 °F 82 °F 93 °F (1984)
Min Temperature 75 °F 65 °F 50 °F (1969)
Cooling Degree Days 18    
Growing Degree Days 33 (Base 50)    
Moisture  
Dew Point 73 °F    
Average Humidity 79    
Maximum Humidity 91    
Minimum Humidity 52    
Precipitation  
Precipitation 0.00 in - - ()
Sea Level Pressure  
Sea Level Pressure 29.94 in    
Wind  
Wind Speed 4 mph (SSE)    
Max Wind Speed 14 mph    
Max Gust Speed -    
Visibility 6 miles    
Events Fog    
Averages and records for this station are not official NWS values.
T = Trace of Precipitation, MM = Missing Value Source: NWS Daily Summary

Daily Weather History Graph

Daily Weather History Graph

Search for Another Location

Airport or City:

Astronomy

Oct. 14, 2019 Rise Set
Actual Time 7:27 AM CDT 7:00 PM CDT
Civil Twilight 7:04 AM CDT 7:23 PM CDT
Nautical Twilight 6:36 AM CDT 7:50 PM CDT
Astronomical Twilight 6:09 AM CDT 8:18 PM CDT
Moon 7:51 PM CDT (10/14) 8:02 AM CDT (10/14)
Length of Visible Light 12h 19m
Length of Day
11h 32m
Full, 99% of the Moon is Illuminated
Oct 14
Full
Oct 21
Last Quarter
Oct 27
New
Nov 4
First Quarter
Nov 12
Full

Hourly Weather History & Observations

Time (CDT) Temp. Heat Index Dew Point Humidity Pressure Visibility Wind Dir Wind Speed Gust Speed Precip Events Conditions
12:24 AM 78.1 °F - 73.0 °F 84% 29.95 in 6.0 mi ENE 3.5 mph - N/A   Haze
12:53 AM 78.1 °F - 73.0 °F 84% 29.96 in 6.0 mi NE 3.5 mph - N/A   Haze
1:14 AM 77.0 °F - 73.0 °F 88% 29.94 in 6.0 mi East 3.5 mph - N/A   Mostly Cloudy
1:53 AM 77.0 °F - 73.0 °F 88% 29.95 in 6.0 mi Calm Calm - N/A   Partly Cloudy
2:18 AM 77.0 °F - 73.0 °F 88% 29.94 in 5.0 mi Calm Calm - N/A   Mostly Cloudy
2:43 AM 75.9 °F - 72.0 °F 87% 29.94 in 4.0 mi Calm Calm - N/A   Scattered Clouds
2:53 AM 75.9 °F - 72.0 °F 87% 29.95 in 4.0 mi Calm Calm - N/A   Partly Cloudy
3:44 AM 77.0 °F - 73.0 °F 88% 29.93 in 2.5 mi SE 3.5 mph - N/A   Scattered Clouds
3:53 AM 77.0 °F - 73.0 °F 88% 29.93 in 1.2 mi ESE 3.5 mph - N/A   Scattered Clouds
3:55 AM 77.0 °F - 73.0 °F 88% 29.92 in 0.8 mi ESE 3.5 mph - N/A   Scattered Clouds
4:02 AM 77.0 °F - 73.0 °F 88% 29.93 in 0.8 mi Calm Calm - N/A   Mist
4:11 AM 77.0 °F - 73.0 °F 88% 29.92 in 1.0 mi Calm Calm - N/A   Mist
4:16 AM 75.9 °F - 73.0 °F 91% 29.92 in 0.8 mi SE 3.5 mph - N/A   Mist
4:37 AM 77.0 °F - 73.0 °F 88% 29.92 in 1.2 mi SSE 3.5 mph - N/A   Partly Cloudy
4:46 AM 75.9 °F - 72.0 °F 87% 29.92 in 0.8 mi SSE 3.5 mph - N/A   Clear
4:53 AM 75.9 °F - 72.0 °F 87% 29.93 in 0.5 mi Calm Calm - N/A Fog Fog
5:38 AM 75.0 °F - 71.1 °F 87% 29.93 in 1.0 mi Calm Calm - N/A   Mist
5:46 AM 75.0 °F - 71.1 °F 87% 29.92 in 0.5 mi Calm Calm - N/A Fog Fog
5:53 AM 75.9 °F - 72.0 °F 87% 29.94 in 1.0 mi South 3.5 mph - N/A   Mist
5:57 AM 75.0 °F - 72.0 °F 90% 29.93 in 2.0 mi South 3.5 mph - N/A   Partly Cloudy
6:04 AM 77.0 °F - 73.0 °F 88% 29.94 in 3.0 mi SSW 3.5 mph - N/A   Partly Cloudy
6:30 AM 78.1 °F - 73.9 °F 87% 29.94 in 6.0 mi SW 4.6 mph - N/A   Partly Cloudy
7:53 AM 77.0 °F - 73.0 °F 88% 29.96 in 5.0 mi WSW 3.5 mph - N/A   Clear
8:53 AM - - - N/A% 29.97 in 9.0 mi SW 6.9 mph - N/A   Clear
9:53 AM 84.0 °F 91.2 °F 73.9 °F 72% 29.98 in 9.0 mi Variable 5.8 mph - N/A   Partly Cloudy
10:53 AM 87.1 °F 94.5 °F 73.0 °F 63% 29.99 in 10.0 mi WNW 5.8 mph - N/A   Partly Cloudy
11:31 AM 88.0 °F 95.6 °F 73.0 °F 61% 29.98 in 10.0 mi ESE 9.2 mph - N/A   Mostly Cloudy
11:53 AM 88.0 °F 94.7 °F 72.0 °F 59% 29.98 in 10.0 mi Variable 4.6 mph - N/A   Mostly Cloudy
12:20 PM 90.0 °F 96.9 °F 72.0 °F 55% 29.96 in 10.0 mi South 8.1 mph - N/A   Scattered Clouds
12:53 PM 90.0 °F 96.4 °F 71.1 °F 54% 29.95 in 10.0 mi SSE 10.4 mph - N/A   Clear
1:53 PM 91.0 °F 97.6 °F 71.1 °F 52% 29.93 in 10.0 mi SE 8.1 mph - N/A   Clear
2:53 PM 89.1 °F 97.0 °F 73.0 °F 59% 29.91 in 10.0 mi SE 12.7 mph - N/A   Clear
3:53 PM 89.1 °F 96.0 °F 72.0 °F 57% 29.90 in 10.0 mi SE 13.8 mph - N/A   Clear
4:53 PM 88.0 °F 95.6 °F 73.0 °F 61% 29.90 in 10.0 mi SSE 12.7 mph - N/A   Clear
5:53 PM 84.0 °F 91.2 °F 73.9 °F 72% 29.91 in 10.0 mi SE 10.4 mph - N/A   Clear
6:53 PM 82.0 °F 88.6 °F 75.0 °F 79% 29.91 in 9.0 mi SE 8.1 mph - N/A   Clear
7:53 PM 81.0 °F 86.7 °F 75.0 °F 82% 29.92 in 10.0 mi SE 8.1 mph - N/A   Clear
8:53 PM 81.0 °F 86.7 °F 75.0 °F 82% 29.93 in 9.0 mi SE 9.2 mph - N/A   Clear
9:53 PM 81.0 °F 87.3 °F 75.9 °F 85% 29.94 in 9.0 mi SE 9.2 mph - N/A   Clear
10:53 PM 82.0 °F 89.4 °F 75.9 °F 82% 29.95 in 9.0 mi SE 9.2 mph - N/A   Clear
11:53 PM 82.0 °F 89.4 °F 75.9 °F 82% 29.94 in 9.0 mi SSE 8.1 mph - N/A   Clear